Date,TemperatureHighF,TemperatureAvgF,TemperatureLowF,DewpointHighF,DewpointAvgF,DewpointLowF,HumidityHigh,HumidityAvg,HumidityLow,PressureMaxIn,PressureMinIn,WindSpeedMaxMPH,WindSpeedAvgMPH,GustSpeedMaxMPH,PrecipitationSumIn
2013-2-1,22.9,19.2,17.3,14.0,9.9,4.0,80,67,52,30.21,29.75,6,1,0,0.00
2013-2-2,18.9,16.6,12.6,14.0,11.0,7.0,86,78,61,30.21,29.99,4,0,0,0.00
2013-2-3,23.6,16.5,7.6,15.0,10.4,4.0,87,78,54,29.99,29.82,4,0,0,0.00
2013-2-4,19.5,17.4,13.6,14.0,8.9,5.0,81,69,55,30.00,29.89,7,1,0,0.00
2013-2-5,26.9,21.5,13.6,22.0,13.7,9.0,84,73,54,29.97,29.85,6,0,0,0.05
2013-2-6,27.5,24.5,18.8,23.0,14.3,9.0,82,66,48,30.38,29.89,8,1,0,0.00
2013-2-7,31.8,24.8,15.6,20.0,14.9,10.0,79,67,52,30.39,30.06,1,0,0,0.00
2013-2-8,33.1,26.7,17.0,31.0,22.7,14.0,92,85,72,30.15,29.76,0,0,0,0.00
2013-2-9,19.9,16.7,9.0,15.0,12.9,5.0,88,84,80,30.45,30.16,0,0,0,0.00
2013-2-10,40.6,24.1,6.0,29.0,16.4,2.0,84,74,45,30.44,29.93,4,0,0,0.17
2013-2-11,49.6,38.5,31.9,40.0,30.6,22.0,91,74,48,29.91,29.57,21,5,0,0.26
2013-2-12,32.8,31.7,30.6,30.0,25.7,22.0,92,78,69,29.98,29.75,17,4,0,0.02
2013-2-13,38.5,31.1,25.1,24.0,21.3,19.0,82,68,51,29.92,29.74,5,0,0,0.00
2013-2-14,39.1,32.7,24.1,34.0,26.8,20.0,92,79,56,29.91,29.76,8,1,0,0.12
2013-2-15,36.9,30.9,21.3,31.0,21.5,12.0,81,69,57,30.09,29.77,16,3,0,0.01
2013-2-16,28.5,23.7,19.7,17.0,12.3,5.0,76,62,43,30.09,29.92,3,0,0,0.00
2013-2-17,20.8,15.6,12.3,17.0,7.0,1.0,86,70,53,30.26,29.92,13,2,0,0.00
2013-2-18,35.8,22.6,10.2,20.0,9.2,4.0,77,59,34,30.31,29.87,5,0,0,0.00
2013-2-19,42.6,33.6,22.9,36.0,25.4,16.0,91,73,49,29.86,29.54,18,4,0,0.28
2013-2-20,23.2,20.3,18.4,17.0,11.0,8.0,79,67,57,30.13,29.79,18,3,0,0.00
2013-2-21,21.1,18.8,15.6,14.0,11.1,8.0,80,72,63,30.43,30.11,6,1,0,0.00
2013-2-22,34.6,28.2,20.0,30.0,21.6,14.0,87,76,59,30.41,29.98,2,0,0,0.03
2013-2-23,38.2,33.1,30.0,30.0,26.9,23.0,81,77,71,29.98,29.88,5,1,0,0.00
2013-2-24,31.2,29.8,28.1,25.0,23.1,21.0,85,76,70,30.10,29.87,7,1,0,0.01
2013-2-25,34.3,30.5,24.7,27.0,24.3,21.0,84,78,68,30.24,30.11,5,0,0,0.01
2013-2-26,43.8,34.0,24.1,33.0,24.9,20.0,93,71,44,30.23,29.69,3,0,0,0.59
2013-2-27,35.3,33.9,32.7,34.0,32.4,31.0,95,94,91,29.70,29.58,5,0,0,0.38
2013-2-28,34.1,32.8,31.2,33.0,31.3,30.0,96,94,91,29.77,29.54,5,1,0,0.18